owner,sensor,date,latitude,longitude,vertical_datum,wind_speed,wind_to_direction,wind_speed_of_gust,qcFlag 
COMPS,ioos:station:USF.COMPS:CAM:1,2012-08-01T00:00:00Z,27.7650,-82.6490,10.0,1.0,250.0,,'1111122,1111122,1111122' 
COMPS,ioos:station:USF.COMPS:CAM:1,2012-08-01T01:00:00Z,27.7650,-82.6490,10.0,0.5,170.0,,'1111122,1111122,1111122' 
COMPS,ioos:station:USF.COMPS:CAM:1,2012-08-01T02:00:00Z,27.7650,-82.6490,10.0,0.5,100.0,,'1111122,1111122,1111122' 
COMPS,ioos:station:USF.COMPS:CAM:1,2012-08-01T10:00:00Z,27.7650,-82.6490,10.0,0.5,150.0,,'1111122,1111122,1111122' 
COMPS,ioos:station:USF.COMPS:CAM:1,2012-08-01T11:00:00Z,27.7650,-82.6490,10.0,1.0,280.0,,'1111122,1111122,1111122' 
COMPS,ioos:station:USF.COMPS:CAM:1,2012-08-01T12:00:00Z,27.7650,-82.6490,10.0,0.5,200.0,,'1111122,1111122,1111122' 
COMPS,ioos:station:USF.COMPS:CAM:1,2012-08-01T14:00:00Z,27.7650,-82.6490,10.0,1.0,220.0,,'1111122,1111122,1111122' 
COMPS,ioos:station:USF.COMPS:CAM:1,2012-08-01T15:00:00Z,27.7650,-82.6490,10.0,2.1,150.0,,'1111122,1111122,1111122' 
COMPS,ioos:station:USF.COMPS:CAM:1,2012-08-01T16:00:00Z,27.7650,-82.6490,10.0,2.6,220.0,,'1111122,1111122,1111122' 
COMPS,ioos:station:USF.COMPS:CAM:1,2012-08-01T17:00:00Z,27.7650,-82.6490,10.0,2.1,220.0,,'1111122,1111122,1111122' 
COMPS,ioos:station:USF.COMPS:CAM:1,2012-08-01T18:00:00Z,27.7650,-82.6490,10.0,3.1,210.0,,'1111122,1111122,1111122' 
COMPS,ioos:station:USF.COMPS:CAM:1,2012-08-01T19:00:00Z,27.7650,-82.6490,10.0,2.6,240.0,,'1111122,1111122,1111122' 
COMPS,ioos:station:USF.COMPS:CAM:1,2012-08-01T20:00:00Z,27.7650,-82.6490,10.0,2.6,220.0,,'1111122,1111122,1111122' 
COMPS,ioos:station:USF.COMPS:CAM:1,2012-08-01T21:00:00Z,27.7650,-82.6490,10.0,1.5,210.0,,'1111122,1111122,1111122' 
COMPS,ioos:station:USF.COMPS:CAM:1,2012-08-01T22:00:00Z,27.7650,-82.6490,10.0,2.6,240.0,,'1111122,1111122,1111122' 
COMPS,ioos:station:USF.COMPS:CAM:1,2012-08-02T01:00:00Z,27.7650,-82.6490,10.0,1.0,210.0,,'1111122,1111122,1111122' 
COMPS,ioos:station:USF.COMPS:CAM:1,2012-08-02T03:00:00Z,27.7650,-82.6490,10.0,0.5,190.0,,'1111122,1111122,1111122' 
COMPS,ioos:station:USF.COMPS:CAM:1,2012-08-02T04:00:00Z,27.7650,-82.6490,10.0,0.5,170.0,,'1111122,1111122,1111122' 
COMPS,ioos:station:USF.COMPS:CAM:1,2012-08-02T13:00:00Z,27.7650,-82.6490,10.0,1.0,170.0,,'1111122,1111122,1111122' 
COMPS,ioos:station:USF.COMPS:CAM:1,2012-08-02T14:00:00Z,27.7650,-82.6490,10.0,1.5,190.0,,'1111122,1111122,1111122' 
COMPS,ioos:station:USF.COMPS:CAM:1,2012-08-02T15:00:00Z,27.7650,-82.6490,10.0,2.6,220.0,,'1111122,1111122,1111122' 
COMPS,ioos:station:USF.COMPS:CAM:1,2012-08-02T16:00:00Z,27.7650,-82.6490,10.0,1.5,220.0,,'1111122,1111122,1111122' 
COMPS,ioos:station:USF.COMPS:CAM:1,2012-08-02T17:00:00Z,27.7650,-82.6490,10.0,2.6,220.0,,'1111122,1111122,1111122' 
COMPS,ioos:station:USF.COMPS:CAM:1,2012-08-02T18:00:00Z,27.7650,-82.6490,10.0,2.1,220.0,,'1111122,1111122,1111122' 
COMPS,ioos:station:USF.COMPS:CAM:1,2012-08-23T21:00:00Z,27.7650,-82.6490,10.0,0.5,290.0,,'1111122,1111122,1111122' 
COMPS,ioos:station:USF.COMPS:CAM:1,2012-08-23T22:00:00Z,27.7650,-82.6490,10.0,1.0,50.0,,'1111122,1111122,1111122' 
COMPS,ioos:station:USF.COMPS:CAM:1,2012-08-23T23:00:00Z,27.7650,-82.6490,10.0,1.0,320.0,,'1111122,1111122,1111122' 
COMPS,ioos:station:USF.COMPS:CAM:1,2012-08-24T00:00:00Z,27.7650,-82.6490,10.0,1.0,30.0,,'1111122,1111122,1111122' 
COMPS,ioos:station:USF.COMPS:CAM:1,2012-08-24T01:00:00Z,27.7650,-82.6490,10.0,0.5,280.0,,'1111122,1111122,1111122' 
COMPS,ioos:station:USF.COMPS:CAM:1,2012-08-24T02:00:00Z,27.7650,-82.6490,10.0,1.0,360.0,,'1111122,1111122,1111122' 
COMPS,ioos:station:USF.COMPS:CAM:1,2012-08-24T03:00:00Z,27.7650,-82.6490,10.0,1.5,360.0,,'1111122,1111122,1111122' 
COMPS,ioos:station:USF.COMPS:CAM:1,2012-08-24T04:00:00Z,27.7650,-82.6490,10.0,1.5,20.0,,'1111122,1111122,1111122' 
COMPS,ioos:station:USF.COMPS:CAM:1,2012-08-24T06:00:00Z,27.7650,-82.6490,10.0,1.0,40.0,,'1111122,1111122,1111122' 
COMPS,ioos:station:USF.COMPS:CAM:1,2012-08-24T07:00:00Z,27.7650,-82.6490,10.0,1.0,360.0,,'1111122,1111122,1111122' 
COMPS,ioos:station:USF.COMPS:CAM:1,2012-08-24T08:00:00Z,27.7650,-82.6490,10.0,1.0,20.0,,'1111122,1111122,1111122' 
COMPS,ioos:station:USF.COMPS:CAM:1,2012-08-24T09:00:00Z,27.7650,-82.6490,10.0,0.5,80.0,,'1111122,1111122,1111122' 
COMPS,ioos:station:USF.COMPS:CAM:1,2012-08-24T10:00:00Z,27.7650,-82.6490,10.0,0.5,30.0,,'1111122,1111122,1111122' 
COMPS,ioos:station:USF.COMPS:CAM:1,2012-08-24T11:00:00Z,27.7650,-82.6490,10.0,0.5,10.0,,'1111122,1111122,1111122' 
COMPS,ioos:station:USF.COMPS:CAM:1,2012-08-24T12:00:00Z,27.7650,-82.6490,10.0,1.0,10.0,,'1111122,1111122,1111122' 
COMPS,ioos:station:USF.COMPS:CAM:1,2012-08-24T13:00:00Z,27.7650,-82.6490,10.0,1.5,20.0,,'1111122,1111122,1111122' 
COMPS,ioos:station:USF.COMPS:CAM:1,2012-08-24T14:00:00Z,27.7650,-82.6490,10.0,2.6,60.0,,'1111122,1111122,1111122' 
COMPS,ioos:station:USF.COMPS:CAM:1,2012-08-24T15:00:00Z,27.7650,-82.6490,10.0,1.5,60.0,,'1111122,1111122,1111122' 
COMPS,ioos:station:USF.COMPS:CAM:1,2012-08-24T16:00:00Z,27.7650,-82.6490,10.0,1.5,60.0,,'1111122,1111122,1111122' 
COMPS,ioos:station:USF.COMPS:CAM:1,2012-08-24T17:00:00Z,27.7650,-82.6490,10.0,1.5,70.0,,'1111122,1111122,1111122' 
COMPS,ioos:station:USF.COMPS:CAM:1,2012-08-24T18:00:00Z,27.7650,-82.6490,10.0,2.1,60.0,,'1111122,1111122,1111122' 
COMPS,ioos:station:USF.COMPS:CAM:1,2012-08-24T19:00:00Z,27.7650,-82.6490,10.0,1.5,30.0,,'1111122,1111122,1111122' 
COMPS,ioos:station:USF.COMPS:CAM:1,2012-08-24T20:00:00Z,27.7650,-82.6490,10.0,1.5,60.0,,'1111122,1111122,1111122' 
COMPS,ioos:station:USF.COMPS:CAM:1,2012-08-24T21:00:00Z,27.7650,-82.6490,10.0,2.1,90.0,,'1111122,1111122,1111122' 
COMPS,ioos:station:USF.COMPS:CAM:1,2012-08-24T22:00:00Z,27.7650,-82.6490,10.0,1.5,90.0,,'1111122,1111122,1111122' 
COMPS,ioos:station:USF.COMPS:CAM:1,2012-08-24T23:00:00Z,27.7650,-82.6490,10.0,1.0,20.0,,'1111122,1111122,1111122' 
COMPS,ioos:station:USF.COMPS:CAM:1,2012-08-25T00:00:00Z,27.7650,-82.6490,10.0,1.0,40.0,,'1111122,1111122,1111122' 
COMPS,ioos:station:USF.COMPS:CAM:1,2012-08-25T01:00:00Z,27.7650,-82.6490,10.0,3.1,70.0,,'1111122,1111122,1111122' 
COMPS,ioos:station:USF.COMPS:CAM:1,2012-08-25T02:00:00Z,27.7650,-82.6490,10.0,2.6,80.0,,'1111122,1111122,1111122' 
COMPS,ioos:station:USF.COMPS:CAM:1,2012-08-25T03:00:00Z,27.7650,-82.6490,10.0,3.6,70.0,,'1111122,1111122,1111122' 
COMPS,ioos:station:USF.COMPS:CAM:1,2012-08-25T04:00:00Z,27.7650,-82.6490,10.0,2.6,70.0,,'1111122,1111122,1111122' 
COMPS,ioos:station:USF.COMPS:CAM:1,2012-08-25T06:00:00Z,27.7650,-82.6490,10.0,2.6,70.0,,'1111122,1111122,1111122' 
COMPS,ioos:station:USF.COMPS:CAM:1,2012-08-25T07:00:00Z,27.7650,-82.6490,10.0,1.5,60.0,,'1111122,1111122,1111122' 
COMPS,ioos:station:USF.COMPS:CAM:1,2012-08-25T08:00:00Z,27.7650,-82.6490,10.0,2.6,70.0,,'1111122,1111122,1111122' 
COMPS,ioos:station:USF.COMPS:CAM:1,2012-08-25T09:00:00Z,27.7650,-82.6490,10.0,1.5,70.0,,'1111122,1111122,1111122' 
COMPS,ioos:station:USF.COMPS:CAM:1,2012-08-25T10:00:00Z,27.7650,-82.6490,10.0,1.5,10.0,,'1111122,1111122,1111122' 
COMPS,ioos:station:USF.COMPS:CAM:1,2012-08-25T11:00:00Z,27.7650,-82.6490,10.0,1.5,10.0,,'1111122,1111122,1111122' 
COMPS,ioos:station:USF.COMPS:CAM:1,2012-08-25T12:00:00Z,27.7650,-82.6490,10.0,3.1,80.0,,'1111122,1111122,1111122' 
COMPS,ioos:station:USF.COMPS:CAM:1,2012-08-25T13:00:00Z,27.7650,-82.6490,10.0,2.1,50.0,,'1111122,1111122,1111122' 
COMPS,ioos:station:USF.COMPS:CAM:1,2012-08-25T14:00:00Z,27.7650,-82.6490,10.0,3.1,60.0,,'1111122,1111122,1111122' 
COMPS,ioos:station:USF.COMPS:CAM:1,2012-08-25T15:00:00Z,27.7650,-82.6490,10.0,2.6,60.0,,'1111122,1111122,1111122' 
COMPS,ioos:station:USF.COMPS:CAM:1,2012-08-25T16:00:00Z,27.7650,-82.6490,10.0,2.6,70.0,,'1111122,1111122,1111122' 
COMPS,ioos:station:USF.COMPS:CAM:1,2012-08-25T17:00:00Z,27.7650,-82.6490,10.0,3.1,70.0,,'1111122,1111122,1111122' 
COMPS,ioos:station:USF.COMPS:CAM:1,2012-08-25T18:00:00Z,27.7650,-82.6490,10.0,2.6,80.0,,'1111122,1111122,1111122' 
COMPS,ioos:station:USF.COMPS:CAM:1,2012-08-25T19:00:00Z,27.7650,-82.6490,10.0,2.1,70.0,,'1111122,1111122,1111122' 
COMPS,ioos:station:USF.COMPS:CAM:1,2012-08-25T20:00:00Z,27.7650,-82.6490,10.0,2.6,70.0,,'1111122,1111122,1111122' 
COMPS,ioos:station:USF.COMPS:CAM:1,2012-08-25T21:00:00Z,27.7650,-82.6490,10.0,2.6,90.0,,'1111122,1111122,1111122' 
COMPS,ioos:station:USF.COMPS:CAM:1,2012-08-25T22:00:00Z,27.7650,-82.6490,10.0,1.5,20.0,,'1111122,1111122,1111122' 
COMPS,ioos:station:USF.COMPS:CAM:1,2012-08-25T23:00:00Z,27.7650,-82.6490,10.0,1.0,20.0,,'1111122,1111122,1111122' 
COMPS,ioos:station:USF.COMPS:CAM:1,2012-08-26T00:00:00Z,27.7650,-82.6490,10.0,2.1,10.0,,'1111122,1111122,1111122' 
COMPS,ioos:station:USF.COMPS:CAM:1,2012-08-26T01:00:00Z,27.7650,-82.6490,10.0,2.1,60.0,,'1111122,1111122,1111122' 
COMPS,ioos:station:USF.COMPS:CAM:1,2012-08-26T02:00:00Z,27.7650,-82.6490,10.0,2.6,50.0,,'1111122,1111122,1111122' 
COMPS,ioos:station:USF.COMPS:CAM:1,2012-08-26T03:00:00Z,27.7650,-82.6490,10.0,1.5,50.0,,'1111122,1111122,1111122' 
COMPS,ioos:station:USF.COMPS:CAM:1,2012-08-26T04:00:00Z,27.7650,-82.6490,10.0,1.0,50.0,,'1111122,1111122,1111122' 
COMPS,ioos:station:USF.COMPS:CAM:1,2012-08-26T05:00:00Z,27.7650,-82.6490,10.0,1.5,50.0,,'1111122,1111122,1111122' 
COMPS,ioos:station:USF.COMPS:CAM:1,2012-08-26T06:00:00Z,27.7650,-82.6490,10.0,1.0,30.0,,'1111122,1111122,1111122' 
COMPS,ioos:station:USF.COMPS:CAM:1,2012-08-26T07:00:00Z,27.7650,-82.6490,10.0,2.1,40.0,,'1111122,1111122,1111122' 
COMPS,ioos:station:USF.COMPS:CAM:1,2012-08-26T08:00:00Z,27.7650,-82.6490,10.0,2.1,30.0,,'1111122,1111122,1111122' 
COMPS,ioos:station:USF.COMPS:CAM:1,2012-08-26T09:00:00Z,27.7650,-82.6490,10.0,2.6,30.0,,'1111122,1111122,1111122' 
COMPS,ioos:station:USF.COMPS:CAM:1,2012-08-26T10:00:00Z,27.7650,-82.6490,10.0,2.1,30.0,,'1111122,1111122,1111122' 
COMPS,ioos:station:USF.COMPS:CAM:1,2012-08-26T11:00:00Z,27.7650,-82.6490,10.0,2.1,20.0,,'1111122,1111122,1111122' 
COMPS,ioos:station:USF.COMPS:CAM:1,2012-08-26T12:00:00Z,27.7650,-82.6490,10.0,2.6,50.0,,'1111122,1111122,1111122' 
COMPS,ioos:station:USF.COMPS:CAM:1,2012-08-26T13:00:00Z,27.7650,-82.6490,10.0,2.6,10.0,,'1111122,1111122,1111122' 
COMPS,ioos:station:USF.COMPS:CAM:1,2012-08-26T14:00:00Z,27.7650,-82.6490,10.0,2.1,30.0,,'1111122,1111122,1111122' 
COMPS,ioos:station:USF.COMPS:CAM:1,2012-08-26T15:00:00Z,27.7650,-82.6490,10.0,3.1,60.0,,'1111122,1111122,1111122' 
COMPS,ioos:station:USF.COMPS:CAM:1,2012-08-26T16:00:00Z,27.7650,-82.6490,10.0,3.1,50.0,,'1111122,1111122,1111122' 
COMPS,ioos:station:USF.COMPS:CAM:1,2012-08-26T17:00:00Z,27.7650,-82.6490,10.0,2.6,40.0,,'1111122,1111122,1111122' 
COMPS,ioos:station:USF.COMPS:CAM:1,2012-08-26T18:00:00Z,27.7650,-82.6490,10.0,2.6,50.0,,'1111122,1111122,1111122' 
COMPS,ioos:station:USF.COMPS:CAM:1,2012-08-26T19:00:00Z,27.7650,-82.6490,10.0,2.6,60.0,,'1111122,1111122,1111122' 
COMPS,ioos:station:USF.COMPS:CAM:1,2012-08-26T20:00:00Z,27.7650,-82.6490,10.0,2.6,60.0,,'1111122,1111122,1111122' 
COMPS,ioos:station:USF.COMPS:CAM:1,2012-08-26T21:00:00Z,27.7650,-82.6490,10.0,2.6,40.0,,'1111122,1111122,1111122' 
COMPS,ioos:station:USF.COMPS:CAM:1,2012-08-26T22:00:00Z,27.7650,-82.6490,10.0,2.1,40.0,,'1111122,1111122,1111122' 
COMPS,ioos:station:USF.COMPS:CAM:1,2012-08-26T23:00:00Z,27.7650,-82.6490,10.0,2.6,40.0,,'1111122,1111122,1111122' 
COMPS,ioos:station:USF.COMPS:CAM:1,2012-08-27T00:00:00Z,27.7650,-82.6490,10.0,2.6,30.0,,'1111122,1111122,1111122' 
COMPS,ioos:station:USF.COMPS:CAM:1,2012-08-27T01:00:00Z,27.7650,-82.6490,10.0,3.6,40.0,,'1111122,1111122,1111122' 
COMPS,ioos:station:USF.COMPS:CAM:1,2012-08-27T02:00:00Z,27.7650,-82.6490,10.0,3.6,60.0,,'1111122,1111122,1111122' 
COMPS,ioos:station:USF.COMPS:CAM:1,2012-08-27T03:00:00Z,27.7650,-82.6490,10.0,3.6,60.0,,'1111122,1111122,1111122' 
COMPS,ioos:station:USF.COMPS:CAM:1,2012-08-27T04:00:00Z,27.7650,-82.6490,10.0,3.1,70.0,,'1111122,1111122,1111122' 
COMPS,ioos:station:USF.COMPS:CAM:1,2012-08-27T05:00:00Z,27.7650,-82.6490,10.0,3.6,60.0,,'1111122,1111122,1111122' 
COMPS,ioos:station:USF.COMPS:CAM:1,2012-08-27T06:00:00Z,27.7650,-82.6490,10.0,3.6,60.0,,'1111122,1111122,1111122' 
COMPS,ioos:station:USF.COMPS:CAM:1,2012-08-27T07:00:00Z,27.7650,-82.6490,10.0,3.6,70.0,,'1111122,1111122,1111122' 
COMPS,ioos:station:USF.COMPS:CAM:1,2012-08-27T08:00:00Z,27.7650,-82.6490,10.0,3.1,70.0,,'1111122,1111122,1111122' 
COMPS,ioos:station:USF.COMPS:CAM:1,2012-08-27T09:00:00Z,27.7650,-82.6490,10.0,4.6,70.0,,'1111122,1111122,1111122' 
COMPS,ioos:station:USF.COMPS:CAM:1,2012-08-27T10:00:00Z,27.7650,-82.6490,10.0,3.6,70.0,,'1111122,1111122,1111122' 
COMPS,ioos:station:USF.COMPS:CAM:1,2012-08-27T11:00:00Z,27.7650,-82.6490,10.0,5.1,80.0,,'1111122,1111122,1111122' 
COMPS,ioos:station:USF.COMPS:CAM:1,2012-08-27T12:00:00Z,27.7650,-82.6490,10.0,4.6,70.0,,'1111122,1111122,1111122' 
COMPS,ioos:station:USF.COMPS:CAM:1,2012-08-27T13:00:00Z,27.7650,-82.6490,10.0,3.1,90.0,,'1111122,1111122,1111122' 
COMPS,ioos:station:USF.COMPS:CAM:1,2012-08-27T14:00:00Z,27.7650,-82.6490,10.0,3.1,90.0,,'1111122,1111122,1111122' 
COMPS,ioos:station:USF.COMPS:CAM:1,2012-08-27T15:00:00Z,27.7650,-82.6490,10.0,3.6,90.0,,'1111122,1111122,1111122' 
COMPS,ioos:station:USF.COMPS:CAM:1,2012-08-27T16:00:00Z,27.7650,-82.6490,10.0,4.1,80.0,,'1111122,1111122,1111122' 
COMPS,ioos:station:USF.COMPS:CAM:1,2012-08-27T17:00:00Z,27.7650,-82.6490,10.0,4.6,100.0,,'1111122,1111122,1111122' 
COMPS,ioos:station:USF.COMPS:CAM:1,2012-08-27T18:00:00Z,27.7650,-82.6490,10.0,3.1,90.0,,'1111122,1111122,1111122' 
COMPS,ioos:station:USF.COMPS:CAM:1,2012-08-27T19:00:00Z,27.7650,-82.6490,10.0,3.1,110.0,,'1111122,1111122,1111122' 
COMPS,ioos:station:USF.COMPS:CAM:1,2012-08-27T20:00:00Z,27.7650,-82.6490,10.0,3.6,110.0,,'1111122,1111122,1111122' 
COMPS,ioos:station:USF.COMPS:CAM:1,2012-08-27T21:00:00Z,27.7650,-82.6490,10.0,2.6,110.0,,'1111122,1111122,1111122' 
COMPS,ioos:station:USF.COMPS:CAM:1,2012-08-27T22:00:00Z,27.7650,-82.6490,10.0,2.6,100.0,,'1111122,1111122,1111122' 
COMPS,ioos:station:USF.COMPS:CAM:1,2012-08-27T23:00:00Z,27.7650,-82.6490,10.0,3.1,120.0,,'1111122,1111122,1111122' 
COMPS,ioos:station:USF.COMPS:CAM:1,2012-08-28T00:00:00Z,27.7650,-82.6490,10.0,3.6,130.0,,'1111122,1111122,1111122' 
COMPS,ioos:station:USF.COMPS:CAM:1,2012-08-28T01:00:00Z,27.7650,-82.6490,10.0,3.1,120.0,,'1111122,1111122,1111122' 
COMPS,ioos:station:USF.COMPS:CAM:1,2012-08-28T02:00:00Z,27.7650,-82.6490,10.0,3.1,110.0,,'1111122,1111122,1111122' 
COMPS,ioos:station:USF.COMPS:CAM:1,2012-08-28T03:00:00Z,27.7650,-82.6490,10.0,2.6,110.0,,'1111122,1111122,1111122' 
COMPS,ioos:station:USF.COMPS:CAM:1,2012-08-28T04:00:00Z,27.7650,-82.6490,10.0,3.1,110.0,,'1111122,1111122,1111122' 
COMPS,ioos:station:USF.COMPS:CAM:1,2012-08-28T05:00:00Z,27.7650,-82.6490,10.0,3.6,120.0,,'1111122,1111122,1111122' 
COMPS,ioos:station:USF.COMPS:CAM:1,2012-08-28T06:00:00Z,27.7650,-82.6490,10.0,3.6,120.0,,'1111122,1111122,1111122' 
COMPS,ioos:station:USF.COMPS:CAM:1,2012-08-28T07:00:00Z,27.7650,-82.6490,10.0,3.1,120.0,,'1111122,1111122,1111122' 
COMPS,ioos:station:USF.COMPS:CAM:1,2012-08-28T08:00:00Z,27.7650,-82.6490,10.0,3.1,110.0,,'1111122,1111122,1111122' 
COMPS,ioos:station:USF.COMPS:CAM:1,2012-08-28T09:00:00Z,27.7650,-82.6490,10.0,2.6,120.0,,'1111122,1111122,1111122' 
COMPS,ioos:station:USF.COMPS:CAM:1,2012-08-28T10:00:00Z,27.7650,-82.6490,10.0,2.1,120.0,,'1111122,1111122,1111122' 
COMPS,ioos:station:USF.COMPS:CAM:1,2012-08-28T11:00:00Z,27.7650,-82.6490,10.0,2.6,110.0,,'1111122,1111122,1111122' 
COMPS,ioos:station:USF.COMPS:CAM:1,2012-08-28T12:00:00Z,27.7650,-82.6490,10.0,2.1,120.0,,'1111122,1111122,1111122' 
COMPS,ioos:station:USF.COMPS:CAM:1,2012-08-28T13:00:00Z,27.7650,-82.6490,10.0,2.1,120.0,,'1111122,1111122,1111122' 
COMPS,ioos:station:USF.COMPS:CAM:1,2012-08-28T14:00:00Z,27.7650,-82.6490,10.0,3.1,120.0,,'1111122,1111122,1111122' 
COMPS,ioos:station:USF.COMPS:CAM:1,2012-08-28T15:00:00Z,27.7650,-82.6490,10.0,2.6,140.0,,'1111122,1111122,1111122' 
COMPS,ioos:station:USF.COMPS:CAM:1,2012-08-28T16:00:00Z,27.7650,-82.6490,10.0,3.1,150.0,,'1111122,1111122,1111122' 
COMPS,ioos:station:USF.COMPS:CAM:1,2012-08-28T17:00:00Z,27.7650,-82.6490,10.0,3.1,130.0,,'1111122,1111122,1111122' 
COMPS,ioos:station:USF.COMPS:CAM:1,2012-08-28T18:00:00Z,27.7650,-82.6490,10.0,2.6,140.0,,'1111122,1111122,1111122' 
COMPS,ioos:station:USF.COMPS:CAM:1,2012-08-28T19:00:00Z,27.7650,-82.6490,10.0,3.6,160.0,,'1111122,1111122,1111122' 
COMPS,ioos:station:USF.COMPS:CAM:1,2012-08-28T20:00:00Z,27.7650,-82.6490,10.0,2.6,170.0,,'1111122,1111122,1111122' 
COMPS,ioos:station:USF.COMPS:CAM:1,2012-08-28T21:00:00Z,27.7650,-82.6490,10.0,2.6,170.0,,'1111122,1111122,1111122' 
COMPS,ioos:station:USF.COMPS:CAM:1,2012-08-28T22:00:00Z,27.7650,-82.6490,10.0,2.1,160.0,,'1111122,1111122,1111122' 
COMPS,ioos:station:USF.COMPS:CAM:1,2012-08-28T23:00:00Z,27.7650,-82.6490,10.0,2.6,150.0,,'1111122,1111122,1111122' 
COMPS,ioos:station:USF.COMPS:CAM:1,2012-08-29T00:00:00Z,27.7650,-82.6490,10.0,1.5,140.0,,'1111122,1111122,1111122' 
COMPS,ioos:station:USF.COMPS:CAM:1,2012-08-29T01:00:00Z,27.7650,-82.6490,10.0,2.1,140.0,,'1111122,1111122,1111122' 
COMPS,ioos:station:USF.COMPS:CAM:1,2012-08-29T02:00:00Z,27.7650,-82.6490,10.0,2.1,120.0,,'1111122,1111122,1111122' 
COMPS,ioos:station:USF.COMPS:CAM:1,2012-08-29T03:00:00Z,27.7650,-82.6490,10.0,2.1,120.0,,'1111122,1111122,1111122' 
COMPS,ioos:station:USF.COMPS:CAM:1,2012-08-29T04:00:00Z,27.7650,-82.6490,10.0,2.6,120.0,,'1111122,1111122,1111122' 
COMPS,ioos:station:USF.COMPS:CAM:1,2012-08-29T05:00:00Z,27.7650,-82.6490,10.0,2.1,120.0,,'1111122,1111122,1111122' 
COMPS,ioos:station:USF.COMPS:CAM:1,2012-08-29T06:00:00Z,27.7650,-82.6490,10.0,2.1,120.0,,'1111122,1111122,1111122' 
COMPS,ioos:station:USF.COMPS:CAM:1,2012-08-29T07:00:00Z,27.7650,-82.6490,10.0,1.5,130.0,,'1111122,1111122,1111122' 
COMPS,ioos:station:USF.COMPS:CAM:1,2012-08-29T08:00:00Z,27.7650,-82.6490,10.0,1.5,120.0,,'1111122,1111122,1111122' 
COMPS,ioos:station:USF.COMPS:CAM:1,2012-08-29T09:00:00Z,27.7650,-82.6490,10.0,1.5,110.0,,'1111122,1111122,1111122' 
COMPS,ioos:station:USF.COMPS:CAM:1,2012-08-29T10:00:00Z,27.7650,-82.6490,10.0,2.6,120.0,,'1111122,1111122,1111122' 
COMPS,ioos:station:USF.COMPS:CAM:1,2012-08-29T11:00:00Z,27.7650,-82.6490,10.0,2.1,110.0,,'1111122,1111122,1111122' 
COMPS,ioos:station:USF.COMPS:CAM:1,2012-08-29T12:00:00Z,27.7650,-82.6490,10.0,2.1,120.0,,'1111122,1111122,1111122' 
COMPS,ioos:station:USF.COMPS:CAM:1,2012-08-29T13:00:00Z,27.7650,-82.6490,10.0,2.6,120.0,,'1111122,1111122,1111122' 
COMPS,ioos:station:USF.COMPS:CAM:1,2012-08-29T14:00:00Z,27.7650,-82.6490,10.0,2.1,130.0,,'1111122,1111122,1111122' 
COMPS,ioos:station:USF.COMPS:CAM:1,2012-08-29T15:00:00Z,27.7650,-82.6490,10.0,2.1,160.0,,'1111122,1111122,1111122' 
COMPS,ioos:station:USF.COMPS:CAM:1,2012-08-29T16:00:00Z,27.7650,-82.6490,10.0,2.6,140.0,,'1111122,1111122,1111122' 
COMPS,ioos:station:USF.COMPS:CAM:1,2012-08-29T17:00:00Z,27.7650,-82.6490,10.0,1.5,160.0,,'1111122,1111122,1111122' 
COMPS,ioos:station:USF.COMPS:CAM:1,2012-08-29T18:00:00Z,27.7650,-82.6490,10.0,2.6,160.0,,'1111122,1111122,1111122' 
COMPS,ioos:station:USF.COMPS:CAM:1,2012-08-29T19:00:00Z,27.7650,-82.6490,10.0,3.1,150.0,,'1111122,1111122,1111122' 
COMPS,ioos:station:USF.COMPS:CAM:1,2012-08-29T20:00:00Z,27.7650,-82.6490,10.0,1.5,160.0,,'1111122,1111122,1111122' 
COMPS,ioos:station:USF.COMPS:CAM:1,2012-08-29T21:00:00Z,27.7650,-82.6490,10.0,2.6,170.0,,'1111122,1111122,1111122' 
COMPS,ioos:station:USF.COMPS:CAM:1,2012-08-29T22:00:00Z,27.7650,-82.6490,10.0,2.1,180.0,,'1111122,1111122,1111122' 
COMPS,ioos:station:USF.COMPS:CAM:1,2012-08-29T23:00:00Z,27.7650,-82.6490,10.0,1.5,170.0,,'1111122,1111122,1111122' 
COMPS,ioos:station:USF.COMPS:CAM:1,2012-08-30T00:00:00Z,27.7650,-82.6490,10.0,1.0,180.0,,'1111122,1111122,1111122' 
COMPS,ioos:station:USF.COMPS:CAM:1,2012-08-30T01:00:00Z,27.7650,-82.6490,10.0,0.5,160.0,,'1111122,1111122,1111122' 
COMPS,ioos:station:USF.COMPS:CAM:1,2012-08-30T02:00:00Z,27.7650,-82.6490,10.0,1.0,110.0,,'1111122,1111122,1111122' 
COMPS,ioos:station:USF.COMPS:CAM:1,2012-08-30T03:00:00Z,27.7650,-82.6490,10.0,1.0,110.0,,'1111122,1111122,1111122' 
COMPS,ioos:station:USF.COMPS:CAM:1,2012-08-30T04:00:00Z,27.7650,-82.6490,10.0,1.5,120.0,,'1111122,1111122,1111122' 
COMPS,ioos:station:USF.COMPS:CAM:1,2012-08-30T05:00:00Z,27.7650,-82.6490,10.0,1.0,110.0,,'1111122,1111122,1111122' 
COMPS,ioos:station:USF.COMPS:CAM:1,2012-08-30T06:00:00Z,27.7650,-82.6490,10.0,1.5,100.0,,'1111122,1111122,1111122' 
COMPS,ioos:station:USF.COMPS:CAM:1,2012-08-30T07:00:00Z,27.7650,-82.6490,10.0,1.5,110.0,,'1111122,1111122,1111122' 
COMPS,ioos:station:USF.COMPS:CAM:1,2012-08-30T08:00:00Z,27.7650,-82.6490,10.0,1.5,110.0,,'1111122,1111122,1111122' 
COMPS,ioos:station:USF.COMPS:CAM:1,2012-08-30T09:00:00Z,27.7650,-82.6490,10.0,1.5,120.0,,'1111122,1111122,1111122' 
COMPS,ioos:station:USF.COMPS:CAM:1,2012-08-30T10:00:00Z,27.7650,-82.6490,10.0,1.0,120.0,,'1111122,1111122,1111122' 
COMPS,ioos:station:USF.COMPS:CAM:1,2012-08-30T11:00:00Z,27.7650,-82.6490,10.0,1.0,110.0,,'1111122,1111122,1111122' 
COMPS,ioos:station:USF.COMPS:CAM:1,2012-08-30T12:00:00Z,27.7650,-82.6490,10.0,1.0,120.0,,'1111122,1111122,1111122' 
COMPS,ioos:station:USF.COMPS:CAM:1,2012-08-30T13:00:00Z,27.7650,-82.6490,10.0,2.1,110.0,,'1111122,1111122,1111122' 
COMPS,ioos:station:USF.COMPS:CAM:1,2012-08-30T14:00:00Z,27.7650,-82.6490,10.0,2.1,100.0,,'1111122,1111122,1111122' 
COMPS,ioos:station:USF.COMPS:CAM:1,2012-08-30T15:00:00Z,27.7650,-82.6490,10.0,1.0,150.0,,'1111122,1111122,1111122' 
COMPS,ioos:station:USF.COMPS:CAM:1,2012-08-30T16:00:00Z,27.7650,-82.6490,10.0,1.5,80.0,,'1111122,1111122,1111122' 
COMPS,ioos:station:USF.COMPS:CAM:1,2012-08-30T17:00:00Z,27.7650,-82.6490,10.0,1.5,70.0,,'1111122,1111122,1111122' 
COMPS,ioos:station:USF.COMPS:CAM:1,2012-08-30T18:00:00Z,27.7650,-82.6490,10.0,1.5,80.0,,'1111122,1111122,1111122' 
COMPS,ioos:station:USF.COMPS:CAM:1,2012-08-30T19:00:00Z,27.7650,-82.6490,10.0,1.0,90.0,,'1111122,1111122,1111122' 
COMPS,ioos:station:USF.COMPS:CAM:1,2012-08-30T20:00:00Z,27.7650,-82.6490,10.0,2.6,210.0,,'1111122,1111122,1111122' 
COMPS,ioos:station:USF.COMPS:CAM:1,2012-08-30T21:00:00Z,27.7650,-82.6490,10.0,2.1,180.0,,'1111122,1111122,1111122' 
COMPS,ioos:station:USF.COMPS:CAM:1,2012-08-30T22:00:00Z,27.7650,-82.6490,10.0,1.0,210.0,,'1111122,1111122,1111122' 
COMPS,ioos:station:USF.COMPS:CAM:1,2012-08-30T23:00:00Z,27.7650,-82.6490,10.0,1.0,190.0,,'1111122,1111122,1111122' 
COMPS,ioos:station:USF.COMPS:CAM:1,2012-08-31T00:00:00Z,27.7650,-82.6490,10.0,1.0,250.0,,'1111122,1111122,1111122' 
COMPS,ioos:station:USF.COMPS:CAM:1,2012-08-31T02:00:00Z,27.7650,-82.6490,10.0,1.5,260.0,,'1111122,1111122,1111122' 
COMPS,ioos:station:USF.COMPS:CAM:1,2012-08-31T03:00:00Z,27.7650,-82.6490,10.0,1.0,300.0,,'1111122,1111122,1111122' 
COMPS,ioos:station:USF.COMPS:CAM:1,2012-08-31T04:00:00Z,27.7650,-82.6490,10.0,1.0,30.0,,'1111122,1111122,1111122' 
COMPS,ioos:station:USF.COMPS:CAM:1,2012-08-31T06:00:00Z,27.7650,-82.6490,10.0,1.0,90.0,,'1111122,1111122,1111122' 
COMPS,ioos:station:USF.COMPS:CAM:1,2012-08-31T07:00:00Z,27.7650,-82.6490,10.0,1.0,100.0,,'1111122,1111122,1111122' 
COMPS,ioos:station:USF.COMPS:CAM:1,2012-08-31T08:00:00Z,27.7650,-82.6490,10.0,0.5,70.0,,'1111122,1111122,1111122' 
COMPS,ioos:station:USF.COMPS:CAM:1,2012-08-31T09:00:00Z,27.7650,-82.6490,10.0,0.5,110.0,,'1111122,1111122,1111122' 
COMPS,ioos:station:USF.COMPS:CAM:1,2012-08-31T11:00:00Z,27.7650,-82.6490,10.0,0.5,90.0,,'1111122,1111122,1111122' 
COMPS,ioos:station:USF.COMPS:CAM:1,2012-08-31T13:00:00Z,27.7650,-82.6490,10.0,2.6,100.0,,'1111122,1111122,1111122' 
COMPS,ioos:station:USF.COMPS:CAM:1,2012-08-31T14:00:00Z,27.7650,-82.6490,10.0,1.5,100.0,,'1111122,1111122,1111122' 
COMPS,ioos:station:USF.COMPS:CAM:1,2012-08-31T15:00:00Z,27.7650,-82.6490,10.0,2.1,80.0,,'1111122,1111122,1111122' 
COMPS,ioos:station:USF.COMPS:CAM:1,2012-08-31T23:00:00Z,27.7650,-82.6490,10.0,1.0,60.0,,'1111122,1111122,1111122' 
 